{"data":{"norad_id":60545,"intl_designator":"2024-149CF","name":"HAWK-10B","alt_names":[],"object_type":"PAYLOAD","status":"ACTIVE","operator":null,"country":"US","launch_date":"2024-08-16","launch_site_code":"AFWTR","launch_vehicle":null,"mission":null,"orbit_class":"UNKNOWN","rcs_meters":null,"size_class":null,"mass_kg":null,"dimensions":null,"purposes":[],"wikipedia_slug":null,"has_3d_model":false,"image_url":null,"decayed_at":null,"tle_current":{"epoch":"2026-09-22T17:10:08.714496Z","epoch_age_seconds":97672,"freshness":"FRESH","line1":"1 60545U 24149CF  26265.71537864  .00000366  00000+0  36976-4 0  9991","line2":"2 60545  97.6740 339.1808 0006465 117.9617 242.2260 14.96745003114575","mean_motion":14.96745003,"eccentricity":0.0006465,"inclination_deg":97.674,"raan_deg":339.1808,"arg_perigee_deg":117.9617,"mean_anomaly_deg":242.226,"bstar":3.6976e-5,"rev_number":11457,"period_min":96.208772844655,"perigee_km":572.46521700603,"apogee_km":581.45815961001,"semimajor_km":6955.098688308,"source":"CELESTRAK","updated_at":"2026-09-23T09:00:20.672487Z"}}}